| time (UTC) | temp F | wind direction | speed knots | gust knots | rain 1hr in | rain 24hr in | rain mn in | humidity % | barometer mb |
| 20260906215005 | 86 | 142 | 2.6 | 7.0 | 0.00 | 0.00 | 0.00 | 41 | 1003.5 |
| 20260906214505 | 86 | 116 | 2.6 | 6.1 | 0.00 | 0.00 | 0.00 | 40 | 1003.6 |
| 20260906213505 | 87 | 131 | 3.5 | 7.8 | 0.00 | 0.00 | 0.00 | 39 | 1003.8 |
| 20260906213005 | 87 | 130 | 1.7 | 10.4 | 0.00 | 0.00 | 0.00 | 38 | 1003.7 |
| 20260906212505 | 88 | 154 | 4.3 | 10.4 | 0.00 | 0.00 | 0.00 | 37 | 1003.9 |
| 20260906212006 | 88 | 146 | 4.3 | 8.7 | 0.00 | 0.00 | 0.00 | 34 | 1003.8 |
| 20260906211505 | 88 | 144 | 4.3 | 10.4 | 0.00 | 0.00 | 0.00 | 34 | 1003.8 |
| 20260906211005 | 87 | 175 | 5.2 | 10.4 | 0.00 | 0.00 | 0.00 | 38 | 1003.9 |
| 20260906210005 | 87 | 108 | 5.2 | 7.8 | 0.00 | 0.00 | 0.00 | 39 | 1004.1 |
| 20260906205505 | 87 | 120 | 1.7 | 6.1 | 0.00 | 0.00 | 0.00 | 38 | 1004.1 |
| 20260906205006 | 87 | 116 | 2.6 | 7.0 | 0.00 | 0.00 | 0.00 | 35 | 1004.1 |
| 20260906204505 | 87 | 122 | 2.6 | 10.4 | 0.00 | 0.00 | 0.00 | 35 | 1004.1 |
| 20260906203005 | 87 | 177 | 2.6 | 7.8 | 0.00 | 0.00 | 0.00 | 39 | 1004.3 |
| 20260906202505 | 86 | 125 | 3.5 | 7.8 | 0.00 | 0.00 | 0.00 | 40 | 1004.3 |
| 20260906202005 | 85 | 84 | 1.7 | 8.7 | 0.00 | 0.00 | 0.00 | 42 | 1004.4 |
| 20260906201005 | 85 | 77 | 5.2 | 10.4 | 0.00 | 0.00 | 0.00 | 42 | 1004.5 |
| 20260906200505 | 85 | 52 | 0.9 | 5.2 | 0.00 | 0.00 | 0.00 | 42 | 1004.4 |
| 20260906200005 | 84 | 49 | 1.7 | 8.7 | 0.00 | 0.00 | 0.00 | 40 | 1004.5 |
| 20260906195505 | 85 | 50 | 2.6 | 8.7 | 0.00 | 0.00 | 0.00 | 40 | 1004.6 |
| 20260906195006 | 85 | 83 | 2.6 | 8.7 | 0.00 | 0.00 | 0.00 | 40 | 1004.7 |
| 20260906194505 | 85 | 110 | 1.7 | 7.0 | 0.00 | 0.00 | 0.00 | 39 | 1004.7 |
| 20260906194005 | 85 | 111 | 0.9 | 6.1 | 0.00 | 0.00 | 0.00 | 41 | 1004.7 |
| 20260906193505 | 84 | 108 | 2.6 | 6.1 | 0.00 | 0.00 | 0.00 | 40 | 1004.8 |
| 20260906193005 | 84 | 90 | 1.7 | 6.1 | 0.00 | 0.00 | 0.00 | 41 | 1004.8 |
| 20260906192505 | 84 | 86 | 2.6 | 6.1 | 0.00 | 0.00 | 0.00 | 42 | 1004.9 |
| 20260906192005 | 84 | 89 | 0.9 | 7.8 | 0.00 | 0.00 | 0.00 | 43 | 1004.9 |
| 20260906191005 | 83 | 96 | 4.3 | 7.8 | 0.00 | 0.00 | 0.00 | 45 | 1005.1 |
| 20260906190505 | 83 | 146 | 1.7 | 7.0 | 0.00 | 0.00 | 0.00 | 46 | 1005.3 |
| 20260906190005 | 83 | 122 | 3.5 | 7.0 | 0.00 | 0.00 | 0.00 | 45 | 1005.3 |
| 20260906185005 | 82 | 158 | 1.7 | 6.1 | 0.00 | 0.00 | 0.00 | 47 | 1005.7 |
| 20260906184505 | 81 | 72 | 1.7 | 7.8 | 0.00 | 0.00 | 0.00 | 47 | 1005.7 |
| 20260906184005 | 82 | 103 | 3.5 | 7.8 | 0.00 | 0.00 | 0.00 | 47 | 1005.8 |
| 20260906183505 | 81 | 120 | 0.9 | 5.2 | 0.00 | 0.00 | 0.00 | 50 | 1005.9 |
| 20260906183005 | 81 | 114 | 0.9 | 2.6 | 0.00 | 0.00 | 0.00 | 49 | 1006.0 |
| 20260906182505 | 81 | 123 | 1.7 | 4.3 | 0.00 | 0.00 | 0.00 | 48 | 1006.1 |
| 20260906182005 | 81 | 119 | 1.7 | 7.0 | 0.00 | 0.00 | 0.00 | 48 | 1006.2 |
| 20260906181506 | 81 | 111 | 2.6 | 7.0 | 0.00 | 0.00 | 0.00 | 48 | 1006.2 |
| 20260906180505 | 81 | 131 | 0.9 | 5.2 | 0.00 | 0.00 | 0.00 | 49 | 1006.3 |
| 20260906180005 | 80 | 192 | 0.0 | 5.2 | 0.00 | 0.00 | 0.00 | 51 | 1006.5 |
| 20260906175505 | 79 | 129 | 0.9 | 6.1 | 0.00 | 0.00 | 0.00 | 51 | 1006.6 |
| 20260906175005 | 78 | 86 | 1.7 | 6.1 | 0.00 | 0.00 | 0.00 | 51 | 1006.6 |
| 20260906174505 | 78 | 88 | 2.6 | 7.0 | 0.00 | 0.00 | 0.00 | 53 | 1006.7 |
| 20260906174005 | 78 | 106 | 2.6 | 7.0 | 0.00 | 0.00 | 0.00 | 55 | 1006.8 |
| 20260906173505 | 78 | 132 | 3.5 | 7.8 | 0.00 | 0.00 | 0.00 | 53 | 1006.9 |
| 20260906172505 | 77 | 80 | 3.5 | 7.8 | 0.00 | 0.00 | 0.00 | 58 | 1007.0 |
| 20260906172005 | 77 | 75 | 1.7 | 7.8 | 0.00 | 0.00 | 0.00 | 58 | 1007.1 |
| 20260906171505 | 77 | 68 | 2.6 | 5.2 | 0.00 | 0.00 | 0.00 | 58 | 1007.2 |
| 20260906170505 | 76 | 79 | 3.5 | 7.8 | 0.00 | 0.00 | 0.00 | 59 | 1007.2 |
| 20260906170005 | 76 | 60 | 2.6 | 7.8 | 0.00 | 0.00 | 0.00 | 60 | 1007.3 |
| 20260906165005 | 75 | 61 | 1.7 | 4.3 | 0.00 | 0.00 | 0.00 | 61 | 1007.3 |
| 20260906164005 | 74 | 323 | 0.9 | 4.3 | 0.00 | 0.00 | 0.00 | 63 | 1007.3 |
| 20260906162505 | 73 | 40 | 0.9 | 5.2 | 0.00 | 0.00 | 0.00 | 65 | 1007.2 |
| 20260906162005 | 73 | 40 | 0.9 | 5.2 | 0.00 | 0.00 | 0.00 | 65 | 1007.2 |
| 20260906161005 | 73 | 69 | 0.0 | 4.3 | 0.00 | 0.00 | 0.00 | 65 | 1007.3 |
| 20260906160505 | 72 | 32 | 0.9 | 4.3 | 0.00 | 0.00 | 0.00 | 66 | 1007.3 |
| 20260906160005 | 72 | 44 | 0.9 | 6.1 | 0.00 | 0.00 | 0.00 | 67 | 1007.4 |
| 20260906155505 | 72 | 68 | 0.0 | 6.1 | 0.00 | 0.00 | 0.00 | 67 | 1007.3 |
| 20260906155005 | 71 | 70 | 2.6 | 6.1 | 0.00 | 0.00 | 0.00 | 68 | 1007.3 |
| 20260906154505 | 71 | 317 | 1.7 | 6.1 | 0.00 | 0.00 | 0.00 | 69 | 1007.4 |
| 20260906154005 | 70 | 49 | 0.9 | 7.0 | 0.00 | 0.00 | 0.00 | 69 | 1007.3 |
| 20260906153505 | 70 | 49 | 4.3 | 7.0 | 0.00 | 0.00 | 0.00 | 70 | 1007.3 |
| 20260906153005 | 70 | 79 | 2.6 | 6.1 | 0.00 | 0.00 | 0.00 | 70 | 1007.4 |
| 20260906152505 | 70 | 40 | 0.0 | 6.1 | 0.00 | 0.00 | 0.00 | 71 | 1007.4 |
| 20260906152004 | 69 | 49 | 1.7 | 6.1 | 0.00 | 0.00 | 0.00 | 72 | 1007.4 |
| 20260906151505 | 69 | 66 | 1.7 | 5.2 | 0.00 | 0.00 | 0.00 | 72 | 1007.4 |
| 20260906151005 | 68 | 84 | 0.9 | 6.1 | 0.00 | 0.00 | 0.00 | 74 | 1007.4 |
| 20260906150505 | 68 | 71 | 3.5 | 6.1 | 0.00 | 0.00 | 0.00 | 74 | 1007.5 |
| 20260906150005 | 68 | 89 | 2.6 | 5.2 | 0.00 | 0.00 | 0.00 | 74 | 1007.5 |
| 20260906145004 | 68 | 54 | 0.0 | 4.3 | 0.00 | 0.00 | 0.00 | 74 | 1007.5 |
| 20260906144504 | 68 | 51 | 0.0 | 4.3 | 0.00 | 0.00 | 0.00 | 73 | 1007.4 |
| 20260906143505 | 68 | 53 | 0.0 | 2.6 | 0.00 | 0.00 | 0.00 | 73 | 1007.2 |
| 20260906143004 | 68 | 59 | 0.9 | 2.6 | 0.00 | 0.00 | 0.00 | 71 | 1007.3 |
| 20260906142004 | 68 | 62 | 0.0 | 2.6 | 0.00 | 0.00 | 0.00 | 73 | 1007.3 |
| 20260906141004 | 67 | 44 | 0.9 | 4.3 | 0.00 | 0.00 | 0.00 | 74 | 1007.4 |
| 20260906140004 | 66 | 49 | 0.9 | 5.2 | 0.00 | 0.00 | 0.00 | 75 | 1007.4 |
| 20260906135005 | 65 | 5 | 0.0 | 1.7 | 0.00 | 0.00 | 0.00 | 78 | 1007.5 |
| 20260906134505 | 64 | 5 | 0.0 | 1.7 | 0.00 | 0.00 | 0.00 | 80 | 1007.4 |
| 20260906134004 | 63 | 5 | 0.0 | 1.7 | 0.00 | 0.00 | 0.00 | 82 | 1007.4 |
| 20260906133505 | 63 | 5 | 0.0 | 0.0 | 0.00 | 0.00 | 0.00 | 83 | 1007.5 |
| 20260906133005 | 62 | 5 | 0.0 | 0.9 | 0.00 | 0.00 | 0.00 | 84 | 1007.3 |
| 20260906132504 | 62 | 5 | 0.0 | 0.9 | 0.00 | 0.00 | 0.00 | 85 | 1007.2 |
| 20260906131004 | 62 | 32 | 0.0 | 0.0 | 0.00 | 0.00 | 0.00 | 85 | 1007.2 |
| 20260906130505 | 62 | 32 | 0.0 | 0.0 | 0.00 | 0.00 | 0.00 | 86 | 1007.2 |
| 20260906125505 | 62 | 32 | 0.0 | 0.0 | 0.00 | 0.00 | 0.00 | 85 | 1007.1 |
| 20260906125005 | 61 | 32 | 0.0 | 0.0 | 0.00 | 0.00 | 0.00 | 85 | 1007.1 |
| 20260906124004 | 62 | 32 | 0.0 | 0.0 | 0.00 | 0.00 | 0.00 | 84 | 1007.1 |
| 20260906123505 | 62 | 32 | 0.0 | 0.0 | 0.00 | 0.00 | 0.00 | 83 | 1007.1 |
| 20260906123005 | 62 | 32 | 0.0 | 0.0 | 0.00 | 0.00 | 0.00 | 83 | 1007.0 |
| 20260906122504 | 62 | 32 | 0.0 | 0.0 | 0.00 | 0.00 | 0.00 | 83 | 1006.9 |
| 20260906122004 | 62 | 32 | 0.0 | 0.9 | 0.00 | 0.00 | 0.00 | 82 | 1007.1 |
| 20260906121504 | 63 | 32 | 0.0 | 1.7 | 0.00 | 0.00 | 0.00 | 82 | 1007.1 |
| 20260906121004 | 63 | 32 | 0.0 | 1.7 | 0.00 | 0.00 | 0.00 | 82 | 1007.1 |
| 20260906120504 | 63 | 32 | 0.0 | 1.7 | 0.00 | 0.00 | 0.00 | 82 | 1007.0 |
| 20260906120004 | 63 | 32 | 0.0 | 0.0 | 0.00 | 0.00 | 0.00 | 81 | 1007.0 |
| 20260906115505 | 63 | 32 | 0.0 | 0.0 | 0.00 | 0.00 | 0.00 | 81 | 1007.2 |
| 20260906115004 | 63 | 32 | 0.0 | 1.7 | 0.00 | 0.00 | 0.00 | 80 | 1007.2 |
| 20260906114504 | 63 | 32 | 0.0 | 1.7 | 0.00 | 0.00 | 0.00 | 80 | 1007.1 |
| 20260906114004 | 63 | 32 | 0.0 | 1.7 | 0.00 | 0.00 | 0.00 | 79 | 1007.2 |
| 20260906113004 | 63 | 32 | 0.0 | 1.7 | 0.00 | 0.00 | 0.00 | 78 | 1007.2 |
| 20260906112005 | 64 | 32 | 0.0 | 0.0 | 0.00 | 0.00 | 0.00 | 76 | 1007.1 |
| 20260906111504 | 64 | 32 | 0.0 | 1.7 | 0.00 | 0.00 | 0.00 | 76 | 1007.1 |
| 20260906111004 | 64 | 32 | 0.0 | 2.6 | 0.00 | 0.00 | 0.00 | 76 | 1007.1 |
| 20260906110504 | 64 | 32 | 0.9 | 2.6 | 0.00 | 0.00 | 0.00 | 76 | 1007.1 |
| 20260906110004 | 64 | 32 | 0.9 | 2.6 | 0.00 | 0.00 | 0.00 | 75 | 1007.1 |
| 20260906105504 | 64 | 32 | 0.9 | 2.6 | 0.00 | 0.00 | 0.00 | 75 | 1007.2 |
| 20260906105004 | 64 | 32 | 1.7 | 2.6 | 0.00 | 0.00 | 0.00 | 75 | 1007.2 |
| 20260906104504 | 64 | 55 | 0.0 | 1.7 | 0.00 | 0.00 | 0.00 | 74 | 1007.1 |
| 20260906103504 | 64 | 55 | 0.0 | 0.9 | 0.00 | 0.00 | 0.00 | 72 | 1007.2 |
| 20260906103004 | 64 | 55 | 0.0 | 0.0 | 0.00 | 0.00 | 0.00 | 71 | 1007.1 |
| 20260906102504 | 64 | 55 | 0.0 | 0.9 | 0.00 | 0.00 | 0.00 | 71 | 1007.1 |
| 20260906102005 | 64 | 55 | 0.0 | 0.9 | 0.00 | 0.00 | 0.00 | 71 | 1007.2 |
| 20260906101505 | 64 | 55 | 0.0 | 0.9 | 0.00 | 0.00 | 0.00 | 70 | 1007.3 |
| 20260906101004 | 65 | 55 | 0.0 | 0.0 | 0.00 | 0.00 | 0.00 | 69 | 1007.2 |
| 20260906100504 | 65 | 55 | 0.0 | 0.0 | 0.00 | 0.00 | 0.00 | 68 | 1007.0 |
| 20260906100004 | 65 | 55 | 0.0 | 0.0 | 0.00 | 0.00 | 0.00 | 68 | 1007.0 |
| 20260906095004 | 65 | 55 | 0.0 | 0.0 | 0.00 | 0.00 | 0.00 | 67 | 1007.0 |
| 20260906094504 | 66 | 55 | 0.0 | 0.0 | 0.00 | 0.00 | 0.00 | 67 | 1006.7 |
| 20260906094005 | 66 | 55 | 0.0 | 2.6 | 0.00 | 0.00 | 0.00 | 66 | 1006.8 |
| 20260906093504 | 66 | 55 | 0.0 | 2.6 | 0.00 | 0.00 | 0.00 | 65 | 1006.7 |
| 20260906093004 | 66 | 55 | 0.9 | 2.6 | 0.00 | 0.00 | 0.00 | 65 | 1006.8 |
| 20260906092504 | 66 | 55 | 0.0 | 4.3 | 0.00 | 0.00 | 0.00 | 65 | 1006.8 |
| 20260906092004 | 66 | 55 | 1.7 | 4.3 | 0.00 | 0.00 | 0.00 | 65 | 1006.7 |
| 20260906091504 | 67 | 55 | 0.9 | 2.6 | 0.00 | 0.00 | 0.00 | 65 | 1006.6 |
| 20260906091004 | 67 | 55 | 0.0 | 2.6 | 0.00 | 0.00 | 0.00 | 64 | 1006.5 |
| 20260906090004 | 67 | 56 | 0.9 | 2.6 | 0.00 | 0.00 | 0.00 | 64 | 1006.5 |
| 20260906085504 | 67 | 55 | 0.0 | 2.6 | 0.00 | 0.00 | 0.00 | 63 | 1006.4 |
| 20260906085005 | 67 | 55 | 0.9 | 2.6 | 0.00 | 0.00 | 0.00 | 63 | 1006.5 |
| 20260906084505 | 68 | 57 | 0.0 | 2.6 | 0.00 | 0.00 | 0.00 | 61 | 1006.5 |
| 20260906083004 | 68 | 59 | 2.6 | 5.2 | 0.00 | 0.00 | 0.00 | 58 | 1006.4 |
| 20260906082004 | 68 | 58 | 1.7 | 5.2 | 0.00 | 0.00 | 0.00 | 57 | 1006.5 |
| 20260906081504 | 68 | 59 | 2.6 | 4.3 | 0.00 | 0.00 | 0.00 | 56 | 1006.5 |
| 20260906081004 | 68 | 57 | 0.0 | 4.3 | 0.00 | 0.00 | 0.00 | 57 | 1006.5 |
| 20260906080504 | 68 | 57 | 0.9 | 2.6 | 0.00 | 0.00 | 0.00 | 56 | 1006.6 |
| 20260906080006 | 69 | 57 | 0.0 | 2.6 | 0.00 | 0.00 | 0.00 | 56 | 1006.6 |
| 20260906075506 | 69 | 57 | 0.0 | 5.2 | 0.00 | 0.00 | 0.00 | 56 | 1006.6 |
| 20260906075006 | 69 | 57 | 0.0 | 5.2 | 0.00 | 0.00 | 0.00 | 56 | 1006.7 |
| 20260906074506 | 68 | 59 | 2.6 | 5.2 | 0.00 | 0.00 | 0.00 | 55 | 1006.7 |
| 20260906073506 | 68 | 106 | 0.9 | 1.7 | 0.00 | 0.00 | 0.00 | 56 | 1006.6 |
| 20260906073006 | 68 | 106 | 0.0 | 2.6 | 0.00 | 0.00 | 0.00 | 55 | 1006.6 |
| 20260906072506 | 68 | 106 | 0.9 | 5.2 | 0.00 | 0.00 | 0.00 | 56 | 1006.6 |
| 20260906072006 | 68 | 104 | 0.0 | 5.2 | 0.00 | 0.00 | 0.00 | 56 | 1006.5 |
| 20260906071506 | 68 | 113 | 1.7 | 5.2 | 0.00 | 0.00 | 0.00 | 56 | 1006.3 |
| 20260906070506 | 68 | 272 | 1.7 | 2.6 | 0.00 | 0.00 | 0.00 | 56 | 1006.3 |
| 20260906070007 | 69 | 272 | 0.9 | 2.6 | 0.00 | 0.00 | 0.00 | 55 | 1006.5 |
| 20260906065506 | 69 | 272 | 0.9 | 4.3 | 0.00 | 0.00 | 0.00 | 55 | 1006.4 |
| 20260906065006 | 69 | 272 | 1.7 | 4.3 | 0.00 | 0.00 | 0.00 | 54 | 1006.3 |
| 20260906064506 | 70 | 271 | 2.6 | 4.3 | 0.00 | 0.00 | 0.00 | 52 | 1006.3 |
| 20260906064006 | 70 | 271 | 0.0 | 2.6 | 0.00 | 0.00 | 0.00 | 51 | 1006.5 |
| 20260906063506 | 71 | 271 | 0.0 | 4.3 | 0.00 | 0.00 | 0.00 | 50 | 1006.8 |
| 20260906063006 | 71 | 271 | 0.9 | 4.3 | 0.00 | 0.00 | 0.00 | 49 | 1006.8 |
| 20260906062506 | 71 | 271 | 2.6 | 4.3 | 0.00 | 0.00 | 0.00 | 49 | 1006.7 |
| 20260906062006 | 71 | 271 | 0.0 | 2.6 | 0.00 | 0.00 | 0.00 | 50 | 1006.7 |
| 20260906061506 | 71 | 271 | 0.9 | 4.3 | 0.00 | 0.00 | 0.00 | 50 | 1006.6 |
| 20260906061007 | 71 | 271 | 0.0 | 5.2 | 0.00 | 0.00 | 0.00 | 50 | 1006.6 |
| 20260906060504 | 71 | 271 | 2.6 | 5.2 | 0.00 | 0.00 | 0.00 | 50 | 1006.5 |
| 20260906060005 | 71 | 264 | 2.6 | 5.2 | 0.00 | 0.00 | 0.00 | 50 | 1006.5 |
| 20260906054504 | 72 | 101 | 0.9 | 4.3 | 0.00 | 0.00 | 0.00 | 51 | 1006.5 |
| 20260906054005 | 72 | 101 | 0.0 | 2.6 | 0.00 | 0.00 | 0.00 | 50 | 1006.5 |
| 20260906053506 | 72 | 101 | 0.9 | 2.6 | 0.00 | 0.00 | 0.00 | 49 | 1006.4 |
| 20260906052506 | 72 | 101 | 0.0 | 1.7 | 0.00 | 0.00 | 0.00 | 50 | 1006.6 |
| 20260906052006 | 72 | 101 | 0.0 | 2.6 | 0.00 | 0.00 | 0.00 | 50 | 1006.6 |
| 20260906051506 | 72 | 104 | 0.9 | 4.3 | 0.00 | 0.00 | 0.00 | 50 | 1006.6 |
| 20260906051006 | 73 | 105 | 0.0 | 6.1 | 0.00 | 0.00 | 0.00 | 48 | 1006.5 |
| 20260906050506 | 72 | 104 | 3.5 | 6.1 | 0.00 | 0.00 | 0.00 | 47 | 1006.4 |
| 20260906050006 | 73 | 103 | 0.9 | 6.1 | 0.00 | 0.00 | 0.00 | 46 | 1006.1 |
| 20260906045006 | 73 | 246 | 1.7 | 5.2 | 0.00 | 0.00 | 0.00 | 47 | 1005.8 |
| 20260906044506 | 73 | 157 | 0.9 | 5.2 | 0.00 | 0.00 | 0.00 | 47 | 1005.7 |
| 20260906044006 | 73 | 105 | 0.9 | 2.6 | 0.00 | 0.00 | 0.00 | 47 | 1005.7 |
| 20260906043506 | 73 | 104 | 0.9 | 2.6 | 0.00 | 0.00 | 0.00 | 46 | 1005.7 |
| 20260906043006 | 73 | 102 | 0.9 | 2.6 | 0.00 | 0.00 | 0.00 | 45 | 1005.6 |
| 20260906042506 | 74 | 98 | 0.9 | 2.6 | 0.00 | 0.00 | 0.00 | 44 | 1005.5 |
| 20260906042006 | 74 | 45 | 1.7 | 6.1 | 0.00 | 0.00 | 0.00 | 43 | 1005.4 |
| 20260906041506 | 74 | 294 | 0.9 | 6.1 | 0.00 | 0.00 | 0.00 | 42 | 1005.1 |
| 20260906041006 | 74 | 281 | 0.9 | 4.3 | 0.00 | 0.00 | 0.00 | 43 | 1004.9 |
| 20260906040506 | 74 | 280 | 0.9 | 4.3 | 0.00 | 0.00 | 0.00 | 44 | 1005.0 |
| 20260906035506 | 75 | 276 | 1.7 | 4.3 | 0.00 | 0.00 | 0.00 | 43 | 1005.2 |
| 20260906035006 | 75 | 273 | 0.0 | 2.6 | 0.00 | 0.00 | 0.00 | 42 | 1005.3 |
| 20260906034506 | 76 | 273 | 0.9 | 2.6 | 0.00 | 0.00 | 0.00 | 42 | 1005.3 |
| 20260906034006 | 76 | 273 | 0.0 | 1.7 | 0.00 | 0.00 | 0.00 | 40 | 1005.4 |
| 20260906033506 | 77 | 273 | 0.9 | 1.7 | 0.00 | 0.00 | 0.00 | 39 | 1005.4 |
| 20260906033006 | 77 | 273 | 0.0 | 1.7 | 0.00 | 0.00 | 0.00 | 38 | 1005.2 |
| 20260906032506 | 77 | 273 | 0.0 | 4.3 | 0.00 | 0.00 | 0.00 | 38 | 1005.2 |
| 20260906032006 | 78 | 273 | 0.9 | 5.2 | 0.00 | 0.00 | 0.00 | 38 | 1005.1 |
| 20260906030505 | 77 | 45 | 0.9 | 2.6 | 0.00 | 0.00 | 0.00 | 40 | 1005.1 |
| 20260906025506 | 78 | 69 | 0.9 | 5.2 | 0.00 | 0.00 | 0.00 | 39 | 1004.7 |
| 20260906025006 | 78 | 27 | 0.9 | 5.2 | 0.00 | 0.00 | 0.00 | 38 | 1004.6 |
| 20260906024006 | 78 | 335 | 2.6 | 7.0 | 0.00 | 0.00 | 0.00 | 38 | 1004.4 |
| 20260906023006 | 78 | 355 | 0.9 | 4.3 | 0.00 | 0.00 | 0.00 | 38 | 1004.2 |
| 20260906022506 | 78 | 355 | 0.0 | 4.3 | 0.00 | 0.00 | 0.00 | 38 | 1004.2 |
| 20260906022006 | 79 | 359 | 0.9 | 5.2 | 0.00 | 0.00 | 0.00 | 38 | 1004.2 |
| 20260906021505 | 79 | 14 | 2.6 | 6.1 | 0.00 | 0.00 | 0.00 | 37 | 1004.2 |
| 20260906021006 | 79 | 321 | 2.6 | 7.8 | 0.00 | 0.00 | 0.00 | 37 | 1004.1 |
| 20260906020506 | 80 | 319 | 4.3 | 11.3 | 0.00 | 0.00 | 0.00 | 36 | 1004.0 |
| 20260906015506 | 80 | 319 | 6.1 | 11.3 | 0.00 | 0.00 | 0.00 | 36 | 1004.0 |
| 20260906015005 | 80 | 298 | 4.3 | 7.8 | 0.00 | 0.00 | 0.00 | 36 | 1004.0 |
| 20260906014006 | 80 | 316 | 3.5 | 7.8 | 0.00 | 0.00 | 0.00 | 35 | 1003.9 |
| 20260906013505 | 80 | 318 | 4.3 | 7.8 | 0.00 | 0.00 | 0.00 | 35 | 1003.9 |
| 20260906013005 | 80 | 322 | 4.3 | 8.7 | 0.00 | 0.00 | 0.00 | 35 | 1003.9 |
| 20260906012005 | 81 | 319 | 4.3 | 8.7 | 0.00 | 0.00 | 0.00 | 35 | 1004.0 |
| 20260906011505 | 81 | 320 | 4.3 | 8.7 | 0.00 | 0.00 | 0.00 | 34 | 1004.0 |
| 20260906011005 | 81 | 344 | 2.6 | 12.2 | 0.00 | 0.00 | 0.00 | 34 | 1004.0 |
| 20260906010006 | 82 | 314 | 5.2 | 12.2 | 0.00 | 0.00 | 0.00 | 34 | 1004.1 |
| 20260906005506 | 82 | 309 | 5.2 | 10.4 | 0.00 | 0.00 | 0.00 | 34 | 1004.2 |
| 20260906005005 | 82 | 320 | 6.1 | 11.3 | 0.00 | 0.00 | 0.00 | 33 | 1004.2 |
| 20260906003506 | 84 | 318 | 4.3 | 8.7 | 0.00 | 0.00 | 0.00 | 30 | 1004.4 |
| 20260906003006 | 85 | 312 | 2.6 | 7.0 | 0.00 | 0.00 | 0.00 | 30 | 1004.4 |
| 20260906002506 | 85 | 293 | 3.5 | 7.8 | 0.00 | 0.00 | 0.00 | 29 | 1004.3 |
| 20260906001005 | 86 | 305 | 5.2 | 13.9 | 0.00 | 0.00 | 0.00 | 28 | 1004.0 |
| 20260906000006 | 87 | 319 | 6.1 | 13.9 | 0.00 | 0.00 | 0.00 | 27 | 1004.0 |
| 20260905235505 | 87 | 317 | 6.1 | 13.9 | 0.00 | 0.00 | 0.00 | 27 | 1003.9 |
| 20260905234006 | 88 | 327 | 1.7 | 4.3 | 0.00 | 0.00 | 0.00 | 29 | 1003.7 |
| 20260905233006 | 89 | 115 | 0.0 | 0.0 | 0.00 | 0.00 | 0.00 | 36 | 1003.6 |
| 20260905232505 | 89 | 115 | 0.0 | 0.0 | 0.00 | 0.00 | 0.00 | 35 | 1003.6 |
| 20260905232005 | 89 | 115 | 0.0 | 0.0 | 0.00 | 0.00 | 0.00 | 32 | 1003.5 |
| 20260905231505 | 89 | 115 | 0.0 | 0.9 | 0.00 | 0.00 | 0.00 | 32 | 1003.5 |
| 20260905231005 | 89 | 115 | 0.0 | 1.7 | 0.00 | 0.00 | 0.00 | 32 | 1003.5 |
| 20260905230505 | 89 | 115 | 0.9 | 1.7 | 0.00 | 0.00 | 0.00 | 28 | 1003.5 |
| 20260905230005 | 89 | 115 | 0.0 | 1.7 | 0.00 | 0.00 | 0.00 | 28 | 1003.4 |
| 20260905225006 | 89 | 115 | 0.0 | 1.7 | 0.00 | 0.00 | 0.00 | 26 | 1003.3 |
| 20260905224505 | 89 | 115 | 0.0 | 1.7 | 0.00 | 0.00 | 0.00 | 27 | 1003.4 |
| 20260905224005 | 89 | 115 | 0.0 | 0.9 | 0.00 | 0.00 | 0.00 | 28 | 1003.4 |
| 20260905223505 | 89 | 115 | 0.0 | 4.3 | 0.00 | 0.00 | 0.00 | 26 | 1003.4 |
| 20260905223005 | 90 | 115 | 0.9 | 5.2 | 0.00 | 0.00 | 0.00 | 25 | 1003.4 |
| 20260905222505 | 90 | 115 | 1.7 | 7.0 | 0.00 | 0.00 | 0.00 | 26 | 1003.3 |
| 20260905222005 | 90 | 113 | 3.5 | 7.0 | 0.00 | 0.00 | 0.00 | 24 | 1003.4 |
| 20260905221505 | 90 | 108 | 0.9 | 7.0 | 0.00 | 0.00 | 0.00 | 24 | 1003.4 |
| 20260905221005 | 90 | 108 | 2.6 | 7.0 | 0.00 | 0.00 | 0.00 | 24 | 1003.4 |
| 20260905220505 | 91 | 108 | 3.5 | 7.0 | 0.00 | 0.00 | 0.00 | 23 | 1003.4 |
| 20260905220006 | 92 | 107 | 3.5 | 7.0 | 0.00 | 0.00 | 0.00 | 22 | 1003.4 |
| 20260905215506 | 92 | 129 | 2.6 | 7.8 | 0.00 | 0.00 | 0.00 | 22 | 1003.5 |